Regional Weather Roundup
Issued by NWS Wakefield, VA

Home | Current Version | Previous Version | Text Only | Print | Product List | Glossary On
Versions: 1 2 3 4 5 6 7 8 9 10 11 12 13 14 15 16 17 18 19 20 21 22 23 24 25 26 27
000
ASUS41 KAKQ 291915
RWRAKQ

REGIONAL WEATHER ROUNDUP
NATIONAL WEATHER SERVICE WAKEFIELD VA
300 PM EDT WED MAR 29 2017

Note: "fair" indicates few or no clouds below 12,000 feet with no
significant weather and/or obstructions to visibility. * = Denotes
station may not report precipitation (e.g., rain,snow,etc.),
thunder or fog.

VAZ042-051-052>054-056-292000-
NORTHERN VIRGINIA

CITY           SKY/WX    TMP DP  RH WIND       PRES   REMARKS
WASH NATIONAL  MOSUNNY   66  39  37 N12       30.10F
DULLES         MOSUNNY   62  37  39 N10       30.10F
FORT BELVOIR   SUNNY     65  39  38 NW8       30.09F
QUANTICO       MOSUNNY   67  38  34 N9G17     30.10F
FREDERICKSBRG* SUNNY     66  42  42 N7        30.08F
STAFFORD*      SUNNY     65  41  42 N9        30.13S
WARRENTON      SUNNY     66  33  29 NW8       30.10F
CULPEPER*      SUNNY     65  41  40 N7        30.10F
MANASSAS*      SUNNY    N/A N/A N/A N12       30.10F
LEESBURG*      SUNNY     63  41  45 N5        30.11F
WINCHESTER     SUNNY     61  36  39 NW5       30.10F
FRONT ROYAL*   CLEAR     63  41  45 NE6       30.09F
LURAY*         CLEAR     64  43  45 NE3       30.09F
$$

VAZ048-049-060>072-079>083-292000-
CENTRAL AND SOUTH CENTRAL VIRGINIA

CITY           SKY/WX    TMP DP  RH WIND       PRES   REMARKS
RICHMOND       MOSUNNY   67  47  48 VRB6      30.07F
CHESTERFIELD*  MOCLDY    66  39  37 NE10      30.09F
PETERSBURG*    CLOUDY    65  48  53 NE6       30.08S
HANOVER        MOSUNNY   67  44  43 NW12G17   30.09F
TAPPAHANNOCK*  MOSUNNY   66  38  35 N9        30.09F
QUINTON*       CLOUDY    63  47  57 N5        30.08F
CHARLOTTSVILLE MOSUNNY   71  43  36 NE7       30.06F
GORDONSVILLE*  PTCLDY    65  45  48 NE5       30.08F
ORANGE*        SUNNY     64  41  42 NE9       30.09F
LOUISA*        MOSUNNY   70  46  43 NE6G16    30.07F
BUMPASS*       FAIR      64  43  46 E5        30.08F
FARMVILLE*     MOSUNNY   73  49  42 E7        30.05F
CREWE*         MOCLDY    69  49  48 NW5       30.06F
FORT PICKETT*  FAIR      68  39  34 NW6       30.07F
CHASE CITY*    FAIR      70  47  44 CALM      30.06F
CLARKSVILLE*   MOCLDY    68  50  52 N3        30.05F
SOUTH HILL*    PTSUNNY   70  51  51 N5        30.11F
LAWRENCEVILLE* MOCLDY    68  49  51 NW6       30.06F
EMPORIA*       CLOUDY    66  52  59 NE3       30.08F
$$

VAZ088>098-292000-
SOUTHEAST VIRGINIA

CITY           SKY/WX    TMP DP  RH WIND       PRES   REMARKS
NORFOLK        MOSUNNY   58  47  66 NE12      30.09F
VIRGINIA BEACH MOSUNNY   58  46  64 NE8       30.09S
NORFOLK NAVAL  NOT AVBL
WEST POINT*    MOSUNNY   65  44  46 N6        30.10F
SALUDA*        FAIR      60  47  63 E5        30.08F
NEWPORT NEWS   MOSUNNY   60  46  59 E12       30.09F
LANGLEY AFB    SUNNY     57  47  69 E13       30.09F
FORT EUSTIS    CLOUDY    63  47  56 CALM      30.06F
WILLIAMSBURG*  MOSUNNY   68  52  56 CALM      30.09S
HR EXEC AP*    FAIR      63  46  55 E8        30.08F
FRANKLIN*      CLOUDY    64  51  62 E5        30.08S
US460-WAKEFLD  PTSUNNY   66  51  58 VRB5      30.07F
$$

VAZ020-022-025-037-045-292000-
WEST CENTRAL AND SOUTHWEST VIRGINIA

CITY           SKY/WX    TMP DP  RH WIND       PRES   REMARKS
STAUNTON*      SUNNY     63  43  48 NE8       30.10F
WAYNESBORO*    CLEAR     63  47  55 NE3       30.08F
HOT SPRINGS VA MOSUNNY   61  32  33 CALM      30.11F
LYNCHBURG      CLOUDY    69  46  43 S3        30.06F
DANVILLE       SUNNY     71  50  47 VRB5      30.05F
SOUTH BOSTON*  MOCLDY    71  48  43 E3        30.05F
MARTINSVILLE   MOSUNNY   71  49  44 SE5       30.08S
ROANOKE        MOSUNNY   72  46  39 NE5       30.06F
BLACKSBURG     SUNNY     67  47  48 CALM      30.09F
DUBLIN*        SUNNY     70  44  37 S3        30.08F
MARION*        SUNNY     70  48  45 NE6       30.09F
HILLSVILLE*    SUNNY     67  49  53 CALM      30.07F
RICHLANDS*     FAIR      67  48  51 NW3       30.08F
WISE*          MOSUNNY   64  46  52 NE5       30.10F
ABINGDON*      SUNNY     71  48  43 N7        30.06F
$$

MDZ021>025-VAZ099-100-292000-
SOUTHERN MARYLAND AND THE DELMARVA PENINSULA

CITY           SKY/WX    TMP DP  RH WIND       PRES   REMARKS
PATUXENT RIVER MOSUNNY   59  41  51 NE16      30.09F
BAY BRIDGE APT SUNNY     61  36  39 N9        30.10F
LEONARDTOWN    SUNNY     59  37  44 NE7       30.10F
DOVER          SUNNY     61  42  50 N12       30.07F
GEORGETOWN     SUNNY     63  35  35 VRB6G17   30.07F
EASTON         SUNNY     63  37  39 N10       30.13F
CAMBRIDGE      SUNNY     61  37  41 NW12      30.09F
SALISBURY      SUNNY     64  40  41 NW9       30.07F
OCEAN CITY     SUNNY    N/A N/A N/A MISG      30.08F
WALLOPS ISLAND MOSUNNY   55  45  68 E14       30.09S
ACCOMACK*      SUNNY     60  38  45 NW7       30.09F
$$

NCZ012>017-030>032-292000-
NORTH CENTRAL AND EASTERN NORTH CAROLINA

CITY           SKY/WX    TMP DP  RH WIND       PRES   REMARKS
ROANOKE RAPIDS CLOUDY    68  55  64 W3        30.06F
RALEIGH        PTSUNNY   69  51  52 SE3       30.07F
ELIZABETH CITY CLOUDY    60  49  66 NE14      30.08F
AHOSKIE*         N/A     65  51  59 NE5       30.07F
EDENTON*       CLOUDY    60  51  71 SE9       30.09S
CURRITUCK*     CLOUDY    57  47  68 E10       30.10S
KILL DEVIL HLS NOT AVBL
MANTEO         PTSUNNY   56  47  72 NE14      30.10S
CAPE HATTERAS  MOSUNNY   58  48  69 NE12G25   30.07F
TARBORO*       NOT AVBL
GOLDSBORO      CLOUDY    69  55  59 NE5       30.04F
WASHINGTON     PTSUNNY   67  53  59 NE5       30.06F
GREENVILLE     CLOUDY    68  54  60 N7        30.08S
NEW BERN       SUNNY     69  54  58 NE9       30.06F
WILMINGTON     CLOUDY    70  58  65 E13       30.03S
$$

VAZ048-292000-
ELSEWHERE

CITY           SKY/WX    TMP DP  RH WIND       PRES   REMARKS
HARRISBURG PA  MOSUNNY   58  33  39 N12G20    30.12F
BALTIMORE      MOSUNNY   63  34  33 N6G21     30.09F
ANNAPOLIS      SUNNY     60  38  43 N12       30.09F
ANDREWS AFB    SUNNY     63  36  36 NW10      30.09F
PHILADELPHIA   SUNNY     60  33  36 N14G25    30.08S
HENDERSON NC   PTSUNNY   67  49  51 CALM      30.06F
GREENSBORO     MOSUNNY   70  52  52 SE7       30.05F
ROCKY MOUNT    CLOUDY    68  53  58 VRB5      30.07F
$$

VAZ100-292000-
MARINE

STATION/POSITION TIME  TEMP    WIND        PRES    WAVE   SWELL
                       AIR SEA DIR/SP/G            HT/PER HT/PER
                 (UTC) (F)     (DEG/KT/KT) (MB)    (FT/S) (FT/S)
CAPE MAY NJ      1848   51 46  310/ 10/ 13 1018.2F
LEWES DE         1848   51 47   10/ 10/ 12 1018.7F
OCEAN-CITY-INLET 1848   49 45   70/ 10/ 15 1018.9F
WACHAPREAGUE VA  1848   52 62   80/  7/ 10 1018.8S
THOMAS POINT MD  1900   52 47   50/ 12/ 14   N/A
GOOSES REEF MD   1900   52 49  100/  6/  8 1019.7    1/ 2
COVE POINT MD    1848   53      30/  7/ 10 1019.7F
SOLOMONS ISLAND  1848   57 49   30/ 11/ 15   N/A
BISHOPS HEAD MD  1848   59 57  340/ 12/ 17 1019.4F
PINEY POINT MD   1848          140/  5/  6   N/A
POTOMAC MD       1900   54 50   30/ 12/ 14 1018.4    0
CAMBRIDGE MD     1848   56 50  330/ 11/ 13 1018.3F
LEWISETTA VA     1848   55 53   70/  7/  9 1018.8F
RAPPAHANNOCK LGT 1848          360/  8/  9 1020.0F
STINGRAY PT      1850   52      50/ 12/ 14 1019.4F
YORK RVR RNG VA  1848   53      70/ 17/ 19 1018.3F
YORKTOWN VA      1848   54 52  110/ 10/ 13 1018.6F
JAMESTOWN VA     1900   63 58   60/  2/  6   N/A     0
DOMINION TERM VA 1848   54      90/ 10/ 14 1019.2F
KIPTOPEKE VA     1848      51   30/  7/ 13   N/A
CAPE HENRY VA    1848   52      80/  6/  7   N/A
WILLOUBY STN VA  1848   52      40/  7/  8 1020.2F
S CRANEY ISL VA  1848   54      30/ 12/ 18 1018.8F
CAPE HENRY BUOY  1842      51                N/A     3/10   2/11
CAPE CHARLES BUO 1851      51                N/A     3/10   2/11
OFFSHORE WE BUOY 1851      50                N/A     4/ 9   2/11
64NM E OF VA BCH 1850   50 48   30/ 16/ 19 1018.2S   5/ 7   3/ 9
DUCK PIER NC     1848   50 51   30/ 14/ 16 1018.6F
44100 DUCK FRF   1835      51                N/A     5/11   2/11
44056 DUCK FRF   1830      51                N/A     4/10   2/11
OREGON INLET NC  1848           10/ 12/ 16   N/A
HATTERAS NC      1848   54 61   20/ 20/ 23 1017.9F
DIAMOND SHLS NC  1850   55 73   20/ 23/ 27 1017.5F   6/10   3/10
CAPE LOOKOUT NC  1800   59      40/ 16/ 18 1017.7F
$$




USA.gov is the U.S. government's official web portal to all federal, state and local government web resources and services.